Dewpoint
48 48 48 48 48 48 48 48 48 50 49 49 50 52 51 52 51 48 42 42 48 51 52 50 53 55 55 53 52 37 34 36 38 38 37 35 38 40 47 51 52 54 51 52 56
50 50 50 49 48 48 47 47 49 50 49 49 49 51 52 52 47 43 46 53 51 48 45 48 50 52 52 52 52 43 35 35 37 38 37 34 34 37 44 50 50 53 51 55 57
51 50 50 49 49 49 48 48 50 50 48 49 49 51 52 46 36 28 47 49 49 47 50 50 48 49 48 52 50 49 40 35 34 34 34 34 33 35 43 46 50 51 51 56 57
50 50 49 50 50 50 49 48 49 48 48 49 50 51 51 42 25 32 46 46 45 48 47 48 45 44 44 45 49 47 46 36 36 40 39 35 38 35 35 44 43 50 52 57 56
49 50 51 52 52 51 51 50 50 49 49 50 50 50 46 39 38 41 46 45 42 48 45 46 40 40 40 42 44 46 46 46 41 43 44 44 41 37 38 38 41 53 53 56 56
50 52 52 52 52 52 52 52 51 50 50 50 50 50 43 34 40 40 41 43 41 40 45 46 42 41 37 38 40 42 42 45 46 41 44 42 41 41 37 45 53 51 51 56 56
51 51 52 53 52 52 52 52 51 51 50 50 50 49 42 37 40 41 41 42 43 42 39 42 46 43 41 31 37 38 40 41 44 45 42 44 40 40 39 51 53 54 50 52 56
51 51 52 52 53 52 52 52 51 51 51 50 50 46 37 40 41 40 41 41 42 41 40 41 43 43 40 39 33 35 37 36 40 45 44 42 38 40 40 47 47 54 53 50 51
51 51 51 51 52 52 52 52 52 51 50 49 46 43 37 44 40 42 41 39 40 41 40 39 38 39 39 33 29 29 27 35 38 44 45 42 39 41 39 45 44 51 54 54 50
51 51 50 50 50 50 50 50 50 48 47 47 47 41 41 38 42 42 42 41 39 40 40 37 37 33 34 30 17 16 22 27 34 39 44 42 42 40 41 42 42 48 53 54 54
50 50 49 49 50 50 47 41 37 36 42 35 36 37 37 40 42 41 42 42 41 39 32 36 31 27 27 29 24 24 24 22 28 37 37 41 42 42 42 38 42 47 52 54 55
50 50 50 50 50 50 44 39 38 40 33 37 40 40 40 41 37 39 43 37 39 33 35 34 27 26 26 27 30 29 25 23 25 35 36 37 38 40 42 42 41 43 51 53 54
50 50 50 50 49 45 42 42 47 41 31 33 37 37 38 40 37 38 41 39 37 34 33 29 28 30 25 24 27 28 26 24 21 29 32 33 34 39 41 41 42 42 47 52 52
50 50 50 49 41 42 41 48 45 43 30 26 32 38 42 42 37 42 40 39 37 34 34 33 32 29 28 25 25 23 28 26 25 26 22 36 30 35 41 40 40 41 41 50 52
50 50 50 48 40 40 43 44 44 42 5 22 33 42 41 36 36 40 42 39 36 35 34 30 31 31 29 28 27 24 26 26 26 25 27 25 26 32 38 39 40 41 41 43 51
50 50 49 41 40 42 43 42 42 19 5 20 30 31 31 34 36 40 41 41 40 36 36 33 35 33 30 30 29 29 27 27 27 29 21 22 25 26 34 36 38 40 41 41 47
50 49 48 44 34 42 42 39 18 13 19 19 26 30 30 31 35 37 36 35 33 28 27 32 32 35 32 30 31 29 28 13 19 20 15 20 26 23 34 36 39 40 41 41 42
49 46 43 44 43 41 37 25 5 7 13 26 28 28 29 33 35 36 35 34 36 33 30 26 23 33 36 30 26 30 28 23 15 17 13 18 26 33 37 37 38 39 40 41 41
42 37 40 42 43 40 29 10 11 14 24 29 28 23 21 29 31 33 33 34 34 35 29 28 27 33 35 34 27 28 26 25 25 28 27 31 36 37 26 20 19 22 34 39 40
37 36 37 42 41 34 25 18 14 26 32 34 25 27 25 27 27 29 32 36 36 37 34 31 25 32 34 35 32 32 29 25 26 19 23 30 33 27 18 19 21 22 25 27 31
36 30 37 41 35 32 16 12 22 28 32 32 28 29 28 29 29 29 32 33 38 37 39 32 31 30 33 31 27 30 29 30 26 23 25 26 23 16 19 21 22 26 30 33 35
31 19 35 37 23 14 12 20 30 30 33 33 34 33 32 32 31 31 31 33 38 37 34 34 31 28 29 33 36 36 32 28 24 28 25 24 15 22 22 23 27 30 33 35 38
25 25 35 34 16 17 24 27 30 29 30 30 32 34 33 33 29 31 32 32 35 36 36 36 31 26 26 32 36 34 36 35 29 32 31 29 17 32 37 25 26 30 31 33 35
25 18 24 28 25 19 17 19 24 30 30 32 32 32 31 32 34 30 30 32 33 36 39 39 32 30 26 29 34 32 34 36 35 31 28 29 27 36 39 28 26 27 27 28 29
24 16 17 17 19 24 25 25 26 21 28 29 29 30 31 24 23 27 29 29 32 35 37 36 30 31 32 33 34 33 33 34 33 34 32 30 33 37 40 33 28 28 28 28 29
23 21 22 20 27 27 27 20 25 27 27 25 27 28 29 27 27 24 28 29 32 35 34 37 30 32 29 32 32 29 30 34 34 34 34 35 33 39 36 32 31 29 30 30 30
28 29 25 27 25 22 17 24 26 27 28 30 29 29 28 29 29 31 32 31 34 34 33 34 31 26 25 30 31 24 28 30 29 28 32 31 34 38 32 31 32 31 30 31 31
Lifted_Index
13 13 13 13 13 13 12 12 12 11 12 12 12 11 11 12 13 14 14 13 12 11 11 9 7 4 3 3 3 4 4 4 4 3 3 2 1 1 0 -0 -1 -1 -0 0 1
13 12 12 13 13 13 13 12 12 11 12 12 12 11 11 12 13 14 13 12 11 11 11 9 7 5 4 3 3 4 4 4 4 3 3 2 2 1 0 -0 -1 -1 -1 -0 0
12 12 12 13 12 12 12 12 12 11 12 12 12 11 12 12 13 13 12 11 11 11 11 10 8 6 5 3 3 3 4 4 4 3 3 2 2 1 1 -0 -1 -1 -1 -0 0
13 13 12 12 12 12 12 12 12 12 12 12 12 11 12 12 12 12 12 12 12 11 10 10 9 8 6 5 4 3 3 4 4 3 3 3 2 2 1 0 -0 -1 -1 -1 -1
13 12 12 11 11 11 11 11 11 11 11 11 11 12 12 13 13 13 13 13 13 12 11 10 10 9 8 6 5 4 4 4 3 4 3 3 3 2 2 1 -0 -0 -1 -1 -1
12 12 11 11 10 10 10 10 10 11 11 11 11 11 12 13 14 14 14 13 13 13 11 10 10 10 9 8 7 6 5 4 4 4 4 3 3 3 2 1 0 -0 -1 -1 -2
12 11 11 10 10 9 9 10 10 10 10 10 11 11 12 13 14 14 14 14 14 13 13 11 10 10 10 10 8 7 6 6 5 4 3 3 3 3 3 2 1 0 -0 -1 -2
11 11 11 10 9 9 9 9 9 10 10 10 11 11 12 13 13 13 13 13 13 13 13 12 11 11 11 10 10 8 7 6 5 3 3 3 3 3 3 2 1 1 -0 -1 -1
11 11 11 10 10 9 9 9 9 9 9 10 11 11 11 12 12 12 12 12 12 12 12 12 11 10 10 9 8 7 6 6 4 3 2 3 3 3 2 2 2 1 0 -1 -1
11 11 11 11 10 10 10 10 10 10 10 10 11 11 11 11 11 11 11 11 11 10 10 10 9 8 8 7 6 5 5 5 4 3 2 2 3 3 2 2 2 1 0 -1 -1
10 11 11 11 10 10 10 10 11 10 10 10 11 10 11 10 10 10 11 10 9 8 8 7 6 6 6 6 5 5 5 5 5 3 2 2 3 3 2 2 1 1 0 -0 -1
10 10 11 10 10 10 11 11 11 11 10 10 10 10 10 10 9 9 9 9 7 6 6 6 5 5 6 6 6 5 5 5 6 4 2 1 2 3 3 2 2 1 1 0 -0
10 10 10 10 11 11 11 11 11 11 10 9 9 9 9 9 7 7 7 7 6 6 6 5 5 6 6 6 5 4 4 5 5 4 2 1 2 3 3 3 2 2 2 1 0
10 10 10 11 11 11 11 11 11 10 8 8 8 8 8 8 7 6 7 7 6 6 6 6 5 5 5 5 4 3 3 3 4 4 3 2 2 2 3 3 3 3 2 2 1
10 10 10 11 12 12 11 11 10 8 6 6 8 8 8 7 6 5 6 6 6 6 6 6 5 5 4 4 3 3 2 2 3 3 3 2 2 2 3 3 3 3 3 2 2
10 10 11 12 13 12 11 10 8 6 5 6 7 7 6 5 4 5 5 5 5 5 5 5 5 5 4 3 3 2 2 2 2 2 2 2 2 3 3 3 3 3 3 2 2
10 11 12 13 13 12 11 9 6 5 6 7 7 6 5 4 3 3 3 3 3 3 4 4 4 4 3 3 2 2 1 1 1 1 1 2 2 2 2 3 3 3 2 2 2
11 12 13 13 12 12 11 8 6 6 7 8 7 6 4 3 3 3 2 2 2 3 3 3 3 3 3 2 2 1 1 1 0 0 1 2 2 2 2 2 2 2 2 2 2
13 13 13 13 12 12 10 8 6 7 8 8 7 6 4 3 3 2 2 2 2 3 3 2 2 3 3 3 2 1 1 1 1 1 1 1 1 1 1 2 2 2 2 2 2
14 13 13 12 12 11 10 8 8 9 9 8 7 6 4 3 3 2 2 2 3 3 3 2 2 2 3 3 2 2 2 2 2 2 1 0 1 1 1 1 1 1 1 2 2
14 13 13 12 12 11 9 9 9 9 9 9 8 7 5 4 2 2 2 2 3 3 3 3 2 2 2 2 2 2 2 3 3 2 1 0 1 2 3 2 2 1 1 2 1
13 13 12 12 11 11 10 10 10 9 9 9 9 8 6 4 3 2 2 3 3 4 3 3 2 1 1 2 2 2 2 3 3 3 2 1 2 4 5 4 3 2 2 2 2
13 13 12 12 11 10 10 10 10 10 9 9 9 8 7 5 4 3 3 3 4 4 3 3 2 1 1 1 2 2 2 3 3 2 1 1 2 4 5 5 5 4 3 2 2
13 12 12 11 11 10 10 10 10 10 9 9 9 8 7 6 4 3 3 3 4 4 3 3 2 1 1 1 1 2 2 3 2 2 1 1 2 3 5 5 5 5 5 4 4
13 12 12 11 11 11 10 10 10 10 9 9 9 8 8 6 5 4 3 3 3 4 3 3 2 1 1 1 1 1 2 2 2 2 1 1 2 3 4 5 5 5 6 6 6
13 13 12 12 11 11 10 10 10 10 10 9 9 9 8 8 7 5 4 4 3 3 3 2 2 1 1 1 1 1 2 2 2 2 1 1 2 3 4 4 4 5 5 6 6
13 14 13 12 11 10 10 10 10 10 10 10 9 9 9 8 8 7 6 4 4 3 3 2 2 1 1 1 1 1 2 2 2 2 2 2 3 4 4 4 4 4 5 6 6